Погода в Дамаре

Йемен     14°32′24″N   44°24′06″E
темп.,
°C
ветер,
м/с
пор.,
м/с
влажн.,
%
обл.,
%
осадки,
мм/ч
давл.,
гПа
погр.,
м
17 мая, пн
пн1700:00+18в1256100 0.0 101578
03:00+17сз115325 0.0 101314
06:00+16з01575 0.0 101511
09:00+21в25290 0.0 10151957
12:00+24в442195 0.0 10123235
15:00+25ссв132199 0.0 10103099
18:00+22зсз4541100 0.5 10121361
21:00+21с354291 1.0 10141179
18 мая, вт
вт1800:00+18з226462 0.1 1015155
03:00+18зюз116394 0.1 1014131
06:00+17ююз11636 0.0 101517
09:00+21ю14375 0.0 10152168
12:00+24юв332494 0.0 10122975
15:00+22зюз6438100 0.0 10121717
18:00+21зюз544697 0.1 1013495
21:00+17зюз346633 0.1 1017284
19 мая, ср
ср1900:00+17юз1165100 0.0 101644
03:00+16зюз2264100 0.0 101421
06:00+16зсз1164100 0.0 101512
09:00+22всв562491 0.0 10142258
12:00+24всв6720100 0.0 10123044
15:00+26св771693 0.0 10103405
18:00+24св771797 0.0 10111864
21:00+21всв592326 0.0 1014294
20 мая, чт
чт2000:00+19св582342 0.0 1014149
03:00+18св332151 0.0 101335
06:00+17в332224 0.0 101525
09:00+22всв581473 0.0 10151776
12:00+25св691271 0.0 10132963
15:00+25св88115 0.0 10113196
18:00+23ссв99135 0.0 10121902
21:00+20в47165 0.0 1015149
21 мая, пт
пт2100:00+18св11215 0.0 101411
03:00+17всв33181 0.0 101412
06:00+16в22325 0.0 101613
09:00+21в67255 0.0 10162086
12:00+24всв67186 0.0 10142521
15:00+25св77155 0.0 10122919
18:00+23св871821 0.0 10132121
21:00+20всв71122100 0.0 1016437